Weather History for Marshfield, WI

Change the Weather History Date:

Monday, April 14, 2014

  Actual Average Record
Temperature  
Mean Temperature 30 °F -  
Max Temperature 33 °F 54 °F 84 °F (2003)
Min Temperature 21 °F 33 °F 17 °F (1928)
Degree Days  
Heating Degree Days 35    
Moisture  
Dew Point 23 °F    
Average Humidity 76    
Maximum Humidity 92    
Minimum Humidity 45    
Precipitation  
Precipitation 0.01 in - - ()
Sea Level Pressure  
Sea Level Pressure 29.81 in    
Wind  
Wind Speed 18 mph (North)    
Max Wind Speed 24 mph    
Max Gust Speed 33 mph    
Visibility 5 miles    
Events Fog , Snow    
Averages and records for this station are not official NWS values.
T = Trace of Precipitation, MM = Missing Value Source: NWS Daily Summary

Daily Weather History Graph

Daily Weather History Graph

Search for Another Location

Airport:

Trip Planner

Search our weather history database for the weather conditions in past years. The results will help you decide how hot, cold, wet, or windy it might be!

Date:

Astronomy

Apr. 14, 2014 Rise Set
Actual Time 6:18 AM CDT 7:44 PM CDT
Civil Twilight 5:47 AM CDT 8:14 PM CDT
Nautical Twilight 5:11 AM CDT 8:51 PM CDT
Astronomical Twilight 4:32 AM CDT 9:31 PM CDT
Moon 7:22 PM CDT (4/14) 5:52 AM CDT (4/14)
Length of Visible Light 14h 26m
Length of Day
13h 26m
Full, 100% of the Moon is Illuminated
Apr 14
Full
Apr 15
Full
Apr 22
Last Quarter
Apr 29
New
May 6
First Quarter

Hourly Weather History & Observations

Time (CDT) Temp. Windchill Dew Point Humidity Pressure Visibility Wind Dir Wind Speed Gust Speed Precip Events Conditions
12:01 AM 34.0 °F 23.8 °F 32.0 °F 92% 29.68 in 3.0 mi North 16.1 mph 23.0 mph 0.00 in Snow Light Snow
12:26 AM 34.0 °F 23.0 °F 30.9 °F 89% 29.66 in 2.5 mi North 18.4 mph 27.6 mph 0.00 in Snow Light Snow
12:33 AM 34.0 °F 22.7 °F 30.9 °F 89% 29.66 in 2.5 mi North 19.6 mph 32.2 mph 0.00 in Snow Light Snow
12:43 AM 34.0 °F 22.4 °F 30.9 °F 89% 29.66 in 2.0 mi North 20.7 mph 28.8 mph 0.00 in Snow Light Snow
12:47 AM 34.0 °F 21.8 °F 30.9 °F 89% 29.66 in 1.5 mi North 23.0 mph 32.2 mph 0.00 in Snow Light Snow
12:54 AM 34.0 °F 23.0 °F 30.9 °F 89% 29.68 in 1.2 mi North 18.4 mph 32.2 mph 0.00 in Snow Light Snow
1:04 AM 33.1 °F 22.2 °F 30.9 °F 92% 29.65 in 1.2 mi North 17.3 mph 28.8 mph 0.00 in Snow Light Snow
1:34 AM 33.1 °F 21.5 °F 30.0 °F 89% 29.65 in 1.0 mi North 19.6 mph 29.9 mph 0.00 in Snow Light Snow
1:54 AM 32.0 °F 20.8 °F 30.0 °F 92% 29.67 in 1.0 mi North 17.3 mph 33.4 mph 0.00 in Snow Light Snow
2:13 AM 32.0 °F 20.8 °F 28.9 °F 88% 29.65 in 0.8 mi North 17.3 mph 31.1 mph 0.00 in Snow Light Snow
2:44 AM 32.0 °F 20.1 °F 28.9 °F 88% 29.66 in 0.5 mi North 19.6 mph 29.9 mph 0.00 in Fog , Snow Snow
2:54 AM 32.0 °F 21.6 °F 28.9 °F 88% 29.70 in 0.8 mi North 15.0 mph 24.2 mph 0.00 in Snow Light Snow
3:54 AM 30.9 °F 18.7 °F 28.0 °F 89% 29.74 in 0.8 mi NNW 19.6 mph 28.8 mph 0.01 in Snow Light Snow
4:16 AM 30.0 °F 17.9 °F 27.0 °F 88% 29.72 in 0.8 mi North 18.4 mph 27.6 mph 0.00 in Snow Light Snow
4:44 AM 30.0 °F 17.5 °F 27.0 °F 88% 29.72 in 0.8 mi North 19.6 mph 26.5 mph 0.00 in Snow Light Snow
4:54 AM 28.9 °F 15.8 °F 26.1 °F 89% 29.75 in 0.8 mi North 20.7 mph 27.6 mph 0.00 in Snow Light Snow
5:11 AM 28.9 °F 16.5 °F 26.1 °F 89% 29.71 in 1.0 mi North 18.4 mph 28.8 mph 0.00 in Snow Light Snow
5:34 AM 28.9 °F 16.1 °F 26.1 °F 89% 29.72 in 0.8 mi North 19.6 mph - 0.00 in Snow Light Snow
5:44 AM 28.9 °F 16.9 °F 25.0 °F 85% 29.72 in 1.0 mi NNW 17.3 mph 32.2 mph 0.00 in Snow Light Snow
5:54 AM 28.0 °F 14.9 °F 25.0 °F 88% 29.76 in 1.2 mi NNW 19.6 mph 28.8 mph 0.00 in Snow Light Snow
6:06 AM 28.0 °F 13.9 °F 25.0 °F 88% 29.73 in 1.8 mi North 23.0 mph 28.8 mph 0.00 in Snow Light Snow
6:14 AM 28.0 °F 14.6 °F 24.1 °F 85% 29.74 in 2.5 mi North 20.7 mph 27.6 mph 0.00 in Snow Light Snow
6:20 AM 28.0 °F 14.9 °F 24.1 °F 85% 29.74 in 3.0 mi NNW 19.6 mph 27.6 mph 0.00 in Snow Light Snow
6:35 AM 28.0 °F 15.3 °F 24.1 °F 85% 29.74 in 2.0 mi North 18.4 mph 26.5 mph 0.00 in Snow Light Snow
6:43 AM 28.0 °F 15.3 °F 24.1 °F 85% 29.74 in 1.5 mi North 18.4 mph 27.6 mph 0.00 in Snow Light Snow
6:54 AM 28.0 °F 14.3 °F 24.1 °F 85% 29.79 in 2.5 mi North 21.9 mph 25.3 mph 0.00 in Snow Light Snow
7:16 AM 28.0 °F 16.1 °F 23.0 °F 81% 29.77 in 4.0 mi North 16.1 mph 23.0 mph 0.00 in Snow Light Snow
7:54 AM 28.0 °F 14.6 °F 21.9 °F 78% 29.86 in 10.0 mi NNW 20.7 mph 31.1 mph 0.00 in   Overcast
8:54 AM 28.0 °F 14.3 °F 19.0 °F 69% 29.89 in 10.0 mi North 21.9 mph 32.2 mph N/A   Overcast
9:54 AM 28.0 °F 13.6 °F 19.0 °F 69% 29.90 in 10.0 mi North 24.2 mph 31.1 mph N/A   Overcast
10:54 AM 28.0 °F 15.3 °F 18.0 °F 66% 29.92 in 10.0 mi North 18.4 mph 26.5 mph N/A   Overcast
11:54 AM 30.0 °F 17.9 °F 18.0 °F 61% 29.95 in 10.0 mi NNW 18.4 mph - N/A   Overcast
12:54 PM 30.0 °F 18.7 °F 18.0 °F 61% 29.97 in 10.0 mi NNW 16.1 mph 25.3 mph N/A   Overcast
1:08 PM 30.0 °F 17.2 °F 18.0 °F 61% 29.92 in 10.0 mi NNW 20.7 mph 24.2 mph N/A   Overcast
1:54 PM 30.9 °F 19.1 °F 18.0 °F 59% 29.98 in 10.0 mi NNW 18.4 mph - N/A   Scattered Clouds
2:54 PM 30.9 °F 18.4 °F 19.0 °F 61% 29.98 in 10.0 mi NNW 20.7 mph - N/A   Overcast
3:54 PM 30.9 °F 19.4 °F 18.0 °F 59% 29.97 in 10.0 mi NNW 17.3 mph - N/A   Overcast
4:54 PM 32.0 °F 21.6 °F 16.0 °F 52% 29.98 in 10.0 mi NNW 15.0 mph - N/A   Overcast
5:54 PM 30.9 °F 20.2 °F 14.0 °F 50% 29.98 in 10.0 mi NNW 15.0 mph - N/A   Mostly Cloudy
6:54 PM 30.0 °F 20.0 °F 12.9 °F 49% 30.01 in 10.0 mi NNW 12.7 mph - N/A   Overcast
7:54 PM 28.9 °F 20.4 °F 10.0 °F 45% 30.02 in 10.0 mi North 9.2 mph - N/A   Overcast
8:54 PM 28.0 °F 16.5 °F 12.0 °F 51% 30.05 in 10.0 mi North 15.0 mph - N/A   Overcast
9:54 PM 27.0 °F 19.5 °F 12.0 °F 53% 30.06 in 10.0 mi North 6.9 mph - N/A   Overcast
10:54 PM 26.1 °F 19.4 °F 12.0 °F 55% 30.06 in 10.0 mi NNE 5.8 mph - N/A   Mostly Cloudy
11:54 PM 21.9 °F 15.7 °F 10.0 °F 60% 30.07 in 10.0 mi NE 4.6 mph - N/A   Partly Cloudy